RH
68 65 68 67 68 68 67 67 65 60 58 54 49 52 51 50 54 57 58 60 60 58 57 49 49 58 68 76 84 86 84 85 77 73 78 82 85 90 92 93 92 91 90
67 63 70 69 69 69 69 67 67 63 56 52 47 44 45 43 44 45 49 54 56 57 57 56 53 48 55 70 76 83 89 88 86 80 82 88 83 84 90 91 92 91 90
65 62 69 72 74 76 71 74 71 64 55 49 45 42 38 36 35 38 43 46 49 55 54 54 55 55 54 60 72 78 84 86 87 82 78 77 78 84 90 91 90 90 89
61 66 63 71 70 78 77 75 69 62 58 52 47 44 41 38 37 36 37 38 41 44 47 47 49 50 51 55 70 72 75 81 85 87 87 84 81 84 88 89 90 88 87
66 67 69 67 72 77 75 73 67 63 59 53 52 49 46 43 40 38 37 37 36 37 37 39 45 45 44 49 53 72 73 75 79 84 86 88 88 87 86 87 86 87 85
68 67 67 73 75 74 71 70 68 64 62 61 56 52 43 37 36 38 37 36 36 37 38 38 38 39 44 48 50 62 77 79 79 80 82 86 87 87 87 86 86 85 84
69 73 75 75 75 74 74 73 72 71 67 68 64 57 46 40 41 44 44 45 38 42 49 47 46 46 47 48 50 51 59 74 76 77 78 82 83 84 86 85 84 84 83
77 78 78 77 77 75 77 77 77 76 73 75 74 74 83 53 41 48 53 51 55 55 58 59 62 64 57 59 59 60 60 59 70 70 72 73 77 78 80 81 81 82 81
82 81 80 74 72 73 75 79 78 77 78 78 77 70 87 88 77 62 54 56 62 61 61 64 64 66 66 65 66 65 62 58 61 76 71 72 78 79 78 79 77 76 79
82 81 76 74 74 76 77 80 83 84 85 87 82 85 86 85 88 91 69 63 69 68 70 69 70 65 61 64 60 66 71 71 71 84 76 70 70 78 82 81 82 81 81
84 80 77 78 77 79 79 83 86 86 87 91 91 90 88 80 80 80 88 79 77 71 73 64 58 60 60 55 70 56 52 63 80 87 89 81 68 70 76 77 84 86 86
85 82 79 80 81 78 72 73 78 83 89 85 85 83 81 83 86 87 92 83 86 73 71 69 55 51 51 54 62 60 48 40 48 64 70 80 85 74 76 80 85 86 87
84 82 80 78 69 69 67 67 73 72 76 75 73 73 83 84 82 84 90 93 91 72 60 59 52 49 60 60 55 57 60 58 68 70 68 64 78 89 93 87 82 80 86
80 77 69 62 50 34 28 42 42 39 40 42 45 47 50 52 51 60 72 90 89 78 61 55 51 62 70 67 73 79 74 71 84 84 81 78 80 78 79 89 88 87 86
69 56 41 28 22 20 21 23 23 27 27 28 30 35 40 48 52 57 65 74 93 89 82 56 75 61 72 76 77 85 86 75 85 89 88 80 79 61 74 84 93 90 89
44 31 27 22 22 18 19 20 22 21 23 30 36 38 45 54 59 62 62 68 82 95 88 72 82 87 82 80 80 81 81 79 70 68 84 75 76 85 82 88 86 88 80
31 23 27 22 20 16 23 22 20 22 23 30 38 46 54 61 64 63 67 79 83 92 89 81 79 80 79 80 84 87 89 89 85 82 88 88 80 87 87 73 88 89 88
30 28 22 21 22 24 30 24 21 24 24 28 37 48 56 59 67 70 77 82 81 78 81 85 79 81 81 82 83 82 79 79 85 82 81 88 86 85 82 86 86 82 86
26 25 23 27 26 35 35 31 28 30 33 41 49 53 56 61 59 61 79 85 86 72 83 89 88 86 84 76 77 80 85 86 86 87 89 89 90 94 88 96 80 98 97
27 29 29 27 34 41 39 39 41 43 44 43 45 49 53 53 59 72 86 95 90 81 84 89 87 85 79 72 74 80 83 90 84 83 89 85 89 87 90 88 89 99 93
30 28 29 33 40 44 58 60 54 52 47 45 42 39 40 46 55 75 96 95 95 96 94 83 75 79 78 76 72 77 96 90 93 82 88 95 98 90 98 98 100 98 83
33 32 32 32 34 51 66 62 71 68 58 49 37 34 42 47 60 64 78 94 92 93 95 97 95 87 85 85 93 96 98 97 94 92 100 98 100 96 100 100 93 94 98
32 31 33 33 37 44 52 67 74 63 57 50 46 52 55 53 60 72 75 84 86 83 87 92 98 96 96 94 98 100 99 100 99 99 100 99 99 98 98 98 97 99 100
30 33 35 35 36 38 52 72 75 62 50 48 59 66 67 60 59 82 84 86 86 82 84 91 95 96 94 98 100 100 100 100 99 98 100 100 100 100 100 100 100 100 100
34 33 34 33 36 40 50 71 70 53 54 62 68 70 67 70 78 84 84 88 82 80 86 93 93 90 94 96 100 100 100 100 98 99 100 100 99 100 100 99 100 100 99
31 30 32 29 34 33 35 73 73 69 71 75 74 69 71 82 85 85 83 84 82 84 89 89 88 88 95 88 99 100 99 100 100 99 100 100 99 100 99 99 100 100 100
Wind_Speed
8 7 7 7 7 6 5 3 3 3 2 2 3 3 4 5 6 5 4 5 6 8 7 7 7 7 7 7 6 7 8 8 8 9 9 10 10 10 11 11 11 13 14
8 7 8 6 4 1 2 2 2 4 3 3 3 4 4 5 4 6 7 7 7 7 8 9 8 9 9 9 8 8 9 9 10 10 10 10 11 11 11 11 12 13 14
8 6 5 3 3 1 0 1 2 4 4 4 5 5 6 6 7 6 7 8 8 8 10 10 11 11 11 10 10 10 11 12 12 13 13 13 13 13 13 13 14 15 15
8 7 5 5 2 1 0 1 3 3 5 7 9 8 9 10 9 7 7 8 8 9 10 12 13 14 15 14 13 13 14 14 15 15 15 16 16 15 15 15 15 16 17
8 7 6 6 4 2 0 1 3 5 8 9 10 11 10 9 7 4 4 6 8 10 12 13 14 16 17 17 17 15 16 16 17 18 18 18 18 18 17 17 17 17 18
10 8 8 6 3 2 2 1 4 5 6 11 13 11 7 6 3 2 5 7 8 9 12 13 15 18 19 19 19 19 17 18 19 20 21 21 21 21 20 20 20 20 19
11 11 8 5 3 2 1 3 4 6 5 12 10 11 6 9 9 9 9 7 7 10 15 16 19 21 21 22 22 24 22 21 22 23 23 24 24 24 24 23 22 21 21
11 10 7 5 3 1 1 2 4 4 5 10 8 4 4 4 3 8 14 6 10 14 18 17 20 22 22 23 24 27 29 28 25 25 25 26 27 27 26 25 25 24 22
11 10 8 6 3 1 1 2 3 4 5 6 9 5 3 2 9 7 6 7 21 20 24 22 23 24 25 26 26 25 25 28 32 30 28 28 28 28 29 28 28 27 26
13 12 9 7 5 3 1 1 2 3 4 7 5 7 5 3 2 4 8 20 12 23 21 21 22 25 25 24 26 26 26 26 26 29 31 31 32 32 31 32 32 30 30
14 12 10 8 5 3 3 3 2 2 4 5 6 5 5 7 3 4 5 8 19 17 15 22 22 21 22 23 24 30 32 32 29 28 28 31 35 35 35 34 33 33 31
14 12 11 8 5 3 3 4 5 5 6 6 5 5 5 3 7 5 4 15 20 13 28 11 17 21 22 22 23 27 30 30 30 29 31 32 33 36 36 36 34 34 33
16 13 10 8 7 7 6 6 6 7 7 6 6 5 4 5 7 7 8 10 7 19 13 21 23 25 18 23 28 29 31 32 31 31 31 32 32 34 35 33 35 35 34
16 13 12 10 9 8 7 7 6 7 5 5 4 5 5 6 8 8 7 7 4 4 16 16 24 14 26 34 33 32 35 34 32 32 34 34 34 36 37 35 33 33 32
17 14 13 12 11 8 8 7 7 7 5 6 7 7 8 9 9 10 9 9 4 3 4 10 10 22 34 33 33 28 31 33 32 32 33 35 37 39 39 37 36 35 35
17 16 13 12 10 9 7 6 7 7 5 7 7 8 8 9 9 9 11 12 12 5 4 12 25 30 33 35 33 32 36 36 34 32 33 35 36 38 39 37 36 36 38
16 16 12 11 10 10 7 7 7 7 7 7 7 8 8 9 11 13 14 16 17 14 11 21 23 28 32 33 35 33 33 34 36 35 32 33 37 38 36 34 37 34 35
16 14 13 11 10 9 8 7 7 8 8 8 8 9 10 12 12 15 16 18 17 21 21 24 27 29 30 30 32 34 32 35 33 34 35 33 35 34 32 33 32 31 30
17 14 13 11 10 8 6 6 7 7 8 9 10 11 12 13 16 18 17 16 19 24 24 25 29 28 29 29 34 31 34 33 31 32 34 34 33 32 30 29 26 19 10
17 14 12 10 9 7 5 6 6 8 9 9 10 11 13 15 17 17 18 18 23 24 23 24 26 29 28 30 30 34 37 29 33 34 33 32 32 30 32 22 21 16 14
16 14 12 10 8 5 6 7 7 8 10 11 12 13 14 15 15 15 17 22 24 25 24 25 26 29 29 30 29 35 27 36 30 31 35 29 30 30 24 18 12 10 13
15 13 12 10 8 7 4 5 7 9 11 13 16 18 17 18 18 20 21 19 19 23 25 26 27 27 31 29 29 27 27 27 19 23 30 26 15 14 10 5 4 6 7
15 13 11 9 8 6 5 6 7 9 12 15 17 19 20 20 21 24 25 23 22 24 26 29 31 30 34 31 33 30 25 26 26 31 22 12 12 12 11 5 4 6 17
13 11 10 8 7 6 5 6 7 11 13 15 16 16 19 23 25 22 25 28 29 26 26 27 27 34 35 39 36 28 29 28 29 27 17 5 7 13 20 17 18 18 15
12 10 8 6 6 7 7 8 10 13 14 15 15 18 21 22 22 22 26 30 29 28 26 26 31 36 38 36 31 30 24 18 14 10 10 2 1 12 21 20 17 12 12
10 7 6 6 6 6 7 9 12 14 15 18 22 24 22 20 22 23 28 29 29 29 30 34 34 36 33 33 31 27 22 17 13 8 6 3 7 1 4 10 13 14 13
Wind_Direction
146 153 119 114 109 105 89 62 29 6 336 342 347 309 315 309 308 313 306 308 320 328 333 319 314 317 317 313 304 304 307 316 324 329 333 334 332 330 332 333 333 333 329
147 146 127 126 123 80 23 49 42 23 7 360 350 337 327 320 315 302 301 297 306 317 324 326 322 318 312 308 303 301 297 302 308 314 317 318 318 318 318 320 319 323 322
157 175 166 144 133 59 186 27 10 351 334 337 333 327 321 306 303 299 298 299 308 299 313 315 318 318 318 311 303 297 294 297 302 306 309 310 311 313 312 310 310 313 317
178 172 189 142 159 231 71 18 338 343 350 342 333 330 320 309 303 300 300 303 303 301 303 310 315 318 316 311 308 298 296 296 298 299 302 304 305 307 308 307 306 306 310
172 175 169 162 208 191 191 358 10 356 345 342 335 329 325 307 299 300 315 317 312 313 315 314 314 319 322 317 312 305 297 294 294 294 295 297 298 301 302 302 302 299 303
191 181 167 158 187 171 107 50 347 360 354 345 336 335 356 13 13 7 343 342 342 346 338 331 328 325 321 321 317 311 300 296 297 295 295 293 295 296 296 298 301 302 300
193 195 195 187 167 179 55 17 0 0 0 357 347 356 30 55 92 3 328 333 4 1 360 345 334 329 322 318 319 320 312 301 298 298 297 293 293 293 293 294 294 296 294
189 196 192 170 147 116 92 7 11 8 15 21 7 360 3 352 331 69 15 15 19 346 344 343 343 339 335 329 320 310 305 305 299 299 298 294 290 290 286 287 289 289 289
188 188 181 177 181 169 33 18 19 26 24 34 28 40 17 325 337 337 15 37 346 339 333 333 330 324 322 324 325 325 325 312 301 296 297 296 293 287 283 281 281 281 278
185 183 183 182 178 168 150 99 38 29 32 31 46 22 29 7 333 326 329 311 328 334 333 334 333 329 330 331 327 325 331 327 317 310 298 294 294 290 285 282 280 278 277
179 180 180 176 177 155 116 104 82 49 39 49 47 31 33 1 13 307 300 322 324 326 326 322 324 327 326 324 323 324 323 319 319 321 316 302 296 293 289 287 286 280 277
170 173 178 179 169 147 121 102 90 82 78 71 56 41 20 358 328 317 302 317 317 324 320 331 330 324 327 323 321 318 320 321 320 318 312 306 300 296 292 290 290 289 284
170 167 174 165 142 121 112 106 102 89 80 70 54 49 36 31 5 344 328 322 310 315 318 326 323 330 339 322 319 320 316 315 314 312 309 307 300 297 297 293 289 289 287
169 163 157 149 140 135 125 121 107 89 76 72 50 34 21 6 360 12 7 338 307 274 300 305 324 326 323 324 322 321 315 316 313 310 307 304 302 303 301 294 288 283 283
160 158 155 147 139 130 124 115 100 84 63 50 35 20 15 8 4 1 4 8 7 320 305 310 318 320 323 328 327 327 321 320 316 310 306 305 304 306 307 299 289 285 285
157 151 148 142 133 121 112 103 84 73 55 43 27 15 7 359 354 354 350 348 348 316 277 301 303 316 324 323 322 319 321 324 327 320 313 310 308 303 303 301 300 293 289
155 150 153 134 130 115 108 97 75 55 43 29 17 5 357 348 344 343 345 345 345 343 305 307 307 312 313 314 315 315 313 310 311 313 308 306 308 305 303 302 301 295 289
150 142 142 137 122 114 106 80 57 42 31 19 7 355 351 345 342 341 341 338 335 332 309 303 312 316 317 319 315 313 312 308 310 314 314 307 306 304 306 305 304 296 288
147 143 136 131 112 120 100 64 48 34 25 17 7 358 349 347 342 338 335 330 325 328 321 307 308 316 315 321 317 314 312 312 315 315 309 308 308 304 305 302 312 291 310
139 135 126 115 119 115 81 52 35 24 18 11 2 352 346 346 337 332 332 321 320 323 319 313 311 313 315 320 317 320 317 315 318 319 314 317 311 310 309 294 304 288 302
131 123 120 115 107 91 60 31 15 10 1 357 353 347 340 334 332 329 323 319 317 317 316 313 308 309 310 316 318 320 312 314 318 321 315 321 310 316 315 297 273 288 305
124 122 112 104 96 95 59 20 6 357 350 343 343 341 335 332 334 333 327 318 315 310 311 307 304 303 304 305 308 313 311 315 314 322 320 308 319 340 38 67 329 276 130
123 114 106 99 87 77 46 27 2 346 343 342 339 336 332 333 330 326 327 323 313 306 300 301 298 296 300 304 304 305 306 306 300 307 321 299 333 328 318 317 295 189 141
117 110 98 88 79 59 39 26 353 336 338 336 335 335 333 328 324 324 321 316 313 307 303 297 295 297 299 299 295 295 300 301 301 307 291 290 23 48 67 75 112 121 110
109 100 89 72 53 38 23 11 346 337 338 337 338 334 325 320 324 323 318 315 309 305 306 302 301 304 303 305 293 298 293 294 302 287 292 247 63 57 76 77 79 90 103
109 100 85 53 35 11 359 359 351 344 345 343 335 332 331 320 319 319 315 312 307 308 311 311 308 307 306 305 300 295 290 288 289 288 255 219 164 76 54 61 91 101 102